Weather reports worldwide

Advertisment
Donna Nook RAF, United Kingdom (3385): temperature & dewpoint: 16.07.2019 01:00:00 - 22.07.2019 01:00:00 (BST)Donna Nook RAF, United Kingdom (3385): wind speed & gusts: 16.07.2019 01:00:00 - 22.07.2019 01:00:00 (BST)Donna Nook RAF, United Kingdom (3385): wind direction: 16.07.2019 01:00:00 - 22.07.2019 01:00:00 (BST)Donna Nook RAF, United Kingdom (3385): reduced air pressure: 16.07.2019 01:00:00 - 22.07.2019 01:00:00 (BST)Donna Nook RAF, United Kingdom (3385): visibility: 16.07.2019 01:00:00 - 22.07.2019 01:00:00 (BST)
Date & Time tt [°C] td [°C] ff [km/h] ff [kn] fx [km/h] fx [kn] dd ppp [hPa] vv [km]
22.07.2019 01:00:00 - - - - - - - - -
22.07.2019 00:00:00 18,1 14,3 16 9 - - S 1017,7 20
21.07.2019 23:00:00 17,9 14,1 13 7 - - S 1018,0 19
21.07.2019 22:00:00 18,4 13,9 13 7 - - S 1018,3 19
21.07.2019 21:00:00 19,2 13,7 11 6 - - S 1018,3 19
21.07.2019 20:00:00 20,1 13,8 11 6 - - S 1018,3 20
21.07.2019 19:00:00 20,8 13,4 16 9 - - S 1018,2 22
21.07.2019 18:00:00 21,2 11,9 22 12 - - SSW 1018,3 24
21.07.2019 17:00:00 22,0 12,2 21 11 - - SSW 1018,4 22
21.07.2019 16:00:00 22,1 11,8 26 14 - - SSW 1018,5 26
21.07.2019 15:00:00 22,2 12,1 24 13 - - SSW 1018,8 25
21.07.2019 14:00:00 22,3 12,1 28 15 - - SW 1018,5 30
21.07.2019 13:00:00 21,9 12,5 21 11 - - SW 1018,8 23
21.07.2019 12:00:00 20,7 11,3 24 13 - - SW 1018,6 24
21.07.2019 11:00:00 19,7 11,7 18 10 - - SSW 1018,5 21
21.07.2019 10:00:00 19,4 10,9 16 9 - - SW 1018,2 24
21.07.2019 09:00:00 17,8 12,4 15 8 - - SW 1017,7 19
21.07.2019 08:00:00 16,8 13,2 13 7 - - SW 1017,2 20
21.07.2019 07:00:00 13,5 12,2 11 6 - - SW 1016,9 16
21.07.2019 06:00:00 11,0 10,0 9 5 - - SW 1016,3 15
21.07.2019 05:00:00 11,0 9,9 15 8 - - SW 1015,5 16
21.07.2019 04:00:00 11,0 9,8 13 7 - - SW 1015,1 22
21.07.2019 03:00:00 11,7 9,9 13 7 - - SW 1014,6 27
21.07.2019 02:00:00 12,0 10,1 15 8 - - SW 1014,1 20
21.07.2019 01:00:00 13,1 10,5 13 7 - - WSW 1013,6 10
21.07.2019 00:00:00 13,6 10,4 21 11 - - WSW 1013,1 24
20.07.2019 23:00:00 13,7 10,7 11 6 - - SSW 1012,5 19
20.07.2019 22:00:00 15,1 10,5 18 10 - - WSW 1011,3 20
20.07.2019 21:00:00 17,1 10,1 16 9 - - WSW 1010,1 25
20.07.2019 20:00:00 18,7 10,6 16 9 - - WSW 1008,9 23
20.07.2019 19:00:00 19,8 11,0 26 14 46 25 W 1007,8 22
20.07.2019 18:00:00 20,9 12,0 24 13 50 27 W 1006,9 23
20.07.2019 17:00:00 20,5 14,0 24 13 - - WSW 1006,1 23
20.07.2019 16:00:00 17,7 15,8 24 13 - - SW 1005,2 20
20.07.2019 15:00:00 16,5 15,2 24 13 52 28 SW 1004,6 20
20.07.2019 14:00:00 21,7 13,4 34 18 50 27 SW 1003,3 23
20.07.2019 13:00:00 20,8 13,4 31 17 50 27 SSW 1003,1 23
20.07.2019 12:00:00 21,4 14,5 28 15 52 28 SSW 1002,6 23
20.07.2019 11:00:00 19,9 15,8 28 15 48 26 SSW 1002,5 22
20.07.2019 10:00:00 19,7 16,3 21 11 - - S 1002,5 18
20.07.2019 09:00:00 18,6 17,0 18 10 - - S 1002,7 16
20.07.2019 08:00:00 17,9 16,9 16 9 - - S 1002,8 13
20.07.2019 07:00:00 17,2 16,7 16 9 - - S 1002,7 9
20.07.2019 06:00:00 16,8 16,4 13 7 - - S 1003,4 6
20.07.2019 05:00:00 16,7 16,4 13 7 - - S 1003,6 6
20.07.2019 04:00:00 16,9 16,5 11 6 - - S 1004,0 9
20.07.2019 03:00:00 16,1 15,6 9 5 - - SW 1004,8 1,9
20.07.2019 02:00:00 16,0 15,3 11 6 - - S 1005,2 5
20.07.2019 01:00:00 16,1 15,3 13 7 - - S 1005,3 28
20.07.2019 00:00:00 16,3 15,4 21 11 - - S 1005,4 19
19.07.2019 23:00:00 17,3 16,7 18 10 - - S 1005,8 10
19.07.2019 22:00:00 17,5 17,0 16 9 - - S 1006,1 8
19.07.2019 21:00:00 17,6 16,9 21 11 - - S 1006,0 8
19.07.2019 20:00:00 17,5 16,6 21 11 - - S 1006,1 11
19.07.2019 19:00:00 18,1 16,2 21 11 - - S 1006,5 17
19.07.2019 18:00:00 18,3 15,9 21 11 - - S 1006,8 20
19.07.2019 17:00:00 17,6 15,8 22 12 - - SSE 1007,4 11
19.07.2019 16:00:00 17,3 15,5 21 11 - - SSE 1008,0 15
19.07.2019 15:00:00 16,0 14,5 18 10 - - SSE 1008,8 13
19.07.2019 14:00:00 16,9 13,4 18 10 - - S 1009,6 19
19.07.2019 13:00:00 18,1 12,5 16 9 - - S 1009,6 18
19.07.2019 12:00:00 18,2 11,6 21 11 - - S 1009,9 20
19.07.2019 11:00:00 18,8 11,8 16 9 - - SSE 1009,8 20
19.07.2019 10:00:00 18,4 11,7 21 11 - - S 1010,2 10
19.07.2019 09:00:00 17,1 11,7 15 8 - - SSW 1010,8 10
19.07.2019 08:00:00 15,9 12,0 15 8 - - SSW 1010,6 21
19.07.2019 07:00:00 13,3 11,9 11 6 - - S 1010,7 16
19.07.2019 06:00:00 11,3 10,0 9 5 - - SSW 1010,7 17
19.07.2019 05:00:00 11,0 9,9 9 5 - - SSW 1010,5 16
19.07.2019 04:00:00 11,8 10,4 11 6 - - S 1010,8 17
19.07.2019 03:00:00 12,2 10,4 13 7 - - SSW 1010,9 17
19.07.2019 02:00:00 12,1 10,0 11 6 - - SSW 1010,8 22
19.07.2019 01:00:00 13,4 10,5 9 5 - - WSW 1010,8 10
19.07.2019 00:00:00 14,1 11,2 9 5 - - WSW 1010,6 17
18.07.2019 23:00:00 14,4 11,0 11 6 - - SSW 1010,3 17
18.07.2019 22:00:00 15,5 11,3 13 7 - - SSW 1010,2 17
18.07.2019 21:00:00 17,3 11,6 15 8 - - SW 1009,7 19
18.07.2019 20:00:00 18,6 11,7 13 7 - - SW 1009,3 19
18.07.2019 19:00:00 20,7 9,5 18 10 - - WSW 1008,7 25
18.07.2019 18:00:00 20,6 10,0 15 8 - - WSW 1008,7 24
18.07.2019 17:00:00 20,9 9,0 22 12 - - W 1008,5 26
18.07.2019 16:00:00 20,8 9,7 15 8 - - W 1008,2 23
18.07.2019 15:00:00 20,9 9,9 16 9 - - WSW 1008,0 25
18.07.2019 14:00:00 20,3 10,1 13 7 - - WSW 1007,9 24
18.07.2019 13:00:00 19,9 10,4 16 9 - - W 1007,8 10
18.07.2019 12:00:00 19,1 10,4 15 8 - - W 1007,9 21
18.07.2019 11:00:00 18,4 11,1 13 7 - - W 1007,7 22
18.07.2019 10:00:00 16,6 13,3 13 7 - - WSW 1007,5 10
18.07.2019 09:00:00 15,5 13,8 13 7 - - WSW 1007,5 3,8
18.07.2019 08:00:00 16,4 14,4 18 10 - - SSW 1007,1 14
18.07.2019 07:00:00 15,7 14,4 18 10 - - SSW 1006,9 12
18.07.2019 06:00:00 15,2 14,2 13 7 - - S 1006,8 10
18.07.2019 05:00:00 15,2 14,4 11 6 - - S 1007,3 9
18.07.2019 04:00:00 15,4 14,5 13 7 - - S 1007,5 8
18.07.2019 03:00:00 15,5 14,2 11 6 - - S 1008,1 11
18.07.2019 02:00:00 15,6 13,9 9 5 - - S 1008,7 8
18.07.2019 01:00:00 15,9 14,0 11 6 - - SSW 1009,4 10
18.07.2019 00:00:00 15,5 14,1 11 6 - - SSW 1009,8 12
17.07.2019 23:00:00 16,2 14,1 11 6 - - WSW 1010,1 13
17.07.2019 22:00:00 18,1 13,5 18 10 - - W 1010,0 14
17.07.2019 21:00:00 20,1 13,9 8 4 - - S 1009,5 17
17.07.2019 20:00:00 20,8 14,5 5 3 - - SSW 1009,8 18
17.07.2019 19:00:00 22,0 13,4 11 6 - - WSW 1010,1 19
17.07.2019 18:00:00 22,6 13,8 16 9 - - SW 1010,4 18
17.07.2019 17:00:00 23,9 13,0 18 10 - - SW 1010,7 18
17.07.2019 16:00:00 23,6 13,2 21 11 - - SW 1011,1 18
17.07.2019 15:00:00 24,4 13,5 16 9 - - S 1011,3 16
17.07.2019 14:00:00 23,6 14,0 11 6 - - SSW 1011,9 15
17.07.2019 13:00:00 20,5 16,2 18 10 - - E 1012,5 11
17.07.2019 12:00:00 20,0 16,4 15 8 - - E 1013,1 10
17.07.2019 11:00:00 20,4 14,5 13 7 - - E 1013,6 15
17.07.2019 10:00:00 20,7 12,2 8 4 - - E 1014,1 17
17.07.2019 09:00:00 20,2 13,4 4 2 - - ENE 1014,4 17
17.07.2019 08:00:00 18,3 12,2 4 2 - - W 1014,3 18
17.07.2019 07:00:00 15,9 12,6 5 3 - - W 1014,5 15
17.07.2019 06:00:00 15,6 11,4 8 4 - - WNW 1014,7 18
17.07.2019 05:00:00 14,6 12,1 8 4 - - SW 1015,0 15
17.07.2019 04:00:00 15,1 12,5 5 3 - - SW 1015,2 17
17.07.2019 03:00:00 15,2 13,1 5 3 - - SSW 1015,7 14
17.07.2019 02:00:00 15,5 13,5 8 4 - - SW 1016,3 11
17.07.2019 01:00:00 16,1 14,2 8 4 - - S 1016,5 10
17.07.2019 00:00:00 16,6 13,9 8 4 - - WSW 1016,7 11
16.07.2019 23:00:00 17,0 14,8 13 7 - - SSE 1016,8 11
16.07.2019 22:00:00 17,1 14,6 13 7 - - SSE 1016,7 12
16.07.2019 21:00:00 19,1 15,4 8 4 - - SE 1016,7 14
16.07.2019 20:00:00 21,4 14,4 13 7 - - SE 1016,7 17
16.07.2019 19:00:00 22,0 14,9 9 5 - - ESE 1016,9 16
16.07.2019 18:00:00 23,4 15,1 15 8 - - ESE 1016,9 19
16.07.2019 17:00:00 23,1 13,3 15 8 - - ESE 1017,1 25
16.07.2019 16:00:00 22,7 14,1 11 6 - - E 1017,6 22
16.07.2019 15:00:00 22,0 14,5 15 8 - - E 1017,8 16
16.07.2019 14:00:00 22,6 14,8 13 7 - - ESE 1017,9 17
16.07.2019 13:00:00 21,9 15,5 11 6 - - E 1018,1 15
16.07.2019 12:00:00 21,6 14,7 9 5 - - NNE 1018,4 15
16.07.2019 11:00:00 20,7 15,7 8 4 - - N 1018,6 12
16.07.2019 10:00:00 19,1 14,6 9 5 - - NNW 1018,9 11
16.07.2019 09:00:00 18,2 14,2 11 6 - - NW 1019,2 13
16.07.2019 08:00:00 16,3 13,8 11 6 - - W 1019,2 11
16.07.2019 07:00:00 13,6 12,3 5 3 - - W 1019,1 11
16.07.2019 06:00:00 12,5 11,1 9 5 - - W 1019,0 11
16.07.2019 05:00:00 11,6 10,5 8 4 - - SSW 1018,9 12
16.07.2019 04:00:00 11,6 10,4 9 5 - - S 1019,2 11
16.07.2019 03:00:00 11,9 10,9 9 5 - - S 1019,7 14
16.07.2019 02:00:00 12,0 10,6 8 4 - - S 1020,2 17
16.07.2019 01:00:00 12,4 10,8 9 5 - - S 1020,6 19

tt = temperature
td = dewpoint
ff = wind speed
fx = gusts
dd = wind direction
ppp = reduced air pressure
vv = visibility

Next stations